Regional Weather Roundup
Issued by NWS Charleston, SC

Current Version | Previous Version | Graphics & Text | Print | Product List | Glossary On
Versions: 1 2 3 4 5 6 7 8 9 10 11 12 13 14 15 16 17 18 19 20 21 22 23 24 25 26 27 28 29 30 31 32 33 34 35 36 37 38 39 40 41 42 43 44 45 46 47 48 49 50
000 ASUS42 KCHS 271927 RWRCHS REGIONAL WEATHER ROUNDUP NATIONAL WEATHER SERVICE CHARLESTON SC 300 PM EDT WED MAY 27 2015 NOTE: "FAIR" INDICATES FEW OR NO CLOUDS BELOW 12,000 FEET WITH NO SIGNIFICANT WEATHER AND/OR OBSTRUCTIONS TO VISIBILITY. NOT ALL STATIONS ARE QUALITY CONTROLLED BY THE NATIONAL WEATHER SERVICE. USE DATA WITH CAUTION...ESPECIALLY DEWPOINT OBSERVATIONS. SCZ027-030-031-034>040-042>050-272000- ...SOUTHEAST SOUTH CAROLINA... CITY SKY/WX TMP DP RH WIND PRES REMARKS N CHARLESTON MOSUNNY 85 65 51 SE13 30.22F WATERFRONT PAR N/A 79 67 66 SE8 30.21F MOUNT PLEASANT LGT RAIN 82 66 57 S12G18 30.23F JOHNS ISLAND CLEAR 82 66 57 S10G16 30.23F PINOPOLIS N/A 90 68 48 SE7 30.12F HX 93 MONCKS CORNER MOCLDY 88 66 48 S8 30.21S HX 90 SUMMERVILLE FAIR 86 68 54 SE3 30.21F BEAUFORT MCAS MOSUNNY 87 67 51 S8 30.22F HX 90 BEAUFORT ARPT FAIR 82 68 61 S5 30.22F HAZE HILTON HEAD IS MOSUNNY 81 66 61 SE8 30.25F WALTERBORO MOCLDY 84 63 48 S10 30.21F ALLENDALE MOCLDY 79 70 73 SE10G18 30.21R ...SOUTHERN MIDLANDS AND PEE DEE... CITY SKY/WX TMP DP RH WIND PRES REMARKS GEORGETOWN NOT AVBL KINGSTREE NOT AVBL ORANGEBURG PTSUNNY 84 68 58 S7 30.21F BARNWELL MOCLDY 84 70 61 E7 30.20F AIKEN MOCLDY 82 61 47 SW3 30.24F MANNING FAIR 81 57 44 SW3 30.21S COLUMBIA PTSUNNY 85 65 51 S7 30.19F SUMTER PTSUNNY 83 70 66 SE10 30.20F FLORENCE PTSUNNY 84 67 56 W8 30.21F MYRTLE BEACH MOSUNNY 82 68 61 S16 30.25F N MYRTLE BEACH SUNNY 81 69 67 S12 30.24F $$ GAZ063-065-086>088-099>101-113>116-118-119-134>141-150-272000- ...SOUTHEAST GEORGIA... CITY SKY/WX TMP DP RH WIND PRES REMARKS SAVANNAH ARPT PTSUNNY 85 65 51 E13 30.22F HUNTER AAF MOSUNNY 85 69 57 SE12 30.20F FORT STEWART MOSUNNY 84 65 53 E12 30.19F STATESBORO RAIN 77 77 100 NW5 30.20F SYLVANIA CLOUDY 84 73 68 N5 30.21F HX 90 CLAXTON MOCLDY 84 70 61 CALM 30.19F ...CSRA...CENTRAL AND FAR SOUTHEAST GEORGIA... CITY SKY/WX TMP DP RH WIND PRES REMARKS THOMSON MOSUNNY 88 70 55 CALM 30.24F HX 92 AUGUSTA-BUSH MOSUNNY 85 67 54 W3 30.19F AUGUSTA-DANIEL MOSUNNY 84 66 54 CALM 30.21F SWAINSBORO FAIR 86 68 54 S5 30.20F VIDALIA RAIN 79 73 83 N7 30.20F EASTMAN FAIR 87 69 55 NE3 30.21F HAZE HX 91 HAZLEHURST MOCLDY 85 70 61 E7 30.17F HX 90 ALMA CLOUDY 84 67 56 E8 30.19F WAYCROSS PTSUNNY 88 68 50 E8 30.18F HX 91 JESUP MOCLDY 91 66 43 E10G16 30.19F HX 94 BAXLEY FAIR 88 68 51 E6 30.17F HX 91 BRUNSWICK N/A 82 63 51 E9 30.22F SAINT SIMONS NOT AVBL $$ SCZ027-028-034-036>038-045-046-048>050-GAZ119-141-272000- ...LAKE AND SUPPLEMENTAL COASTAL OBSERVATIONS... STATION/POSITION TIME TEMP WIND PRES WAVE SWELL AIR SEA DIR/SP/G HT/PER HT/PER/DIR (UTC) (F) (DEG/KT/KT) (MB) (FT/S) (FT/S/D) UPR LAKE MARION NOT AVBL WINYAH BAY 1800 80 160/ 8 1023.0F LAKE MURRAY 1800 81 230/ 1/ 7 1022.7F ACE BASIN NERRS 1800 83 170/ 2 1024.0 FORT PULASKI 1900 81 79 110/ 8/ 10 1024.1F SAPELO ISLAND 1900 85 120/ 6 1024.0S $$ ANZ835-935-AMZ111-154-330-350-352-354-370-450-454-472-272000- ...C-MAN AND BUOY OBSERVATIONS... STATION/POSITION TIME TEMP WIND PRES WAVE SWELL AIR SEA DIR/SP/G HT/PER HT/PER/DIR (UTC) (F) (DEG/KT/KT) (MB) (FT/S) (FT/S/D) BUOY 41004 1850 78 78 100/ 8/ 10 1023.8F 3/ 7 3/ 7 BUOY 41008 1850 78 79 140/ 6/ 6 1023.9F 3/ 7 3/110/ 7 FOLLY BEACH CMAN 1900 78 150/ 8/ 9 1024.1F CAPERS NEARSHORE 1808 78 160/ 8/ 10 1024.5F FRIPP NEARSHORE NOT AVBL STATION/POSITION TIME TEMP WIND PRES WAVE SWELL AIR SEA DIR/SP/G HT/PER HT/PER/DIR (UTC) (F) (DEG/KT/KT) (MB) (FT/S) (FT/S/D) 5E ST. MARYS GA 1821 80 N/A 3/ 7 FRYING PAN BUOY 1850 77 76 150/ 10/ 12 1025.1F 3/ 7 3/150/ 7 BUOY 41025 1850 74 77 160/ 12/ 16 1025.9F 3/ 8 2/150/ 8 CAPE LOOKOUT NC 1900 74 150/ 14/ 15 1024.8F BUOY 41002 1850 74 75 100/ 10/ 10 1025.5F 4/ 7 3/110/ 7 BUOY 41010 1820 78 81 80/ 14/ 16 1023.0F ST AUGUSTINE FL 1900 78 81 100/ 8/ 9 1023.7F $$

USA.gov is the U.S. government's official web portal to all federal, state and local government web resources and services.